Regional Weather Roundup
Issued by NWS

Home | Current Version | Previous Version | Text Only | Print | Product List | Glossary Off
Versions: 1 2 3 4 5 6 7 8 9 10 11 12 13 14 15 16 17 18 19 20 21 22 23 24 25 26 27 28 29 30 31 32 33 34 35 36 37 38 39 40 41 42 43 44 45 46 47 48 49 50

000
ASUS43 KDTX 252001
RWRMI
MICHIGAN HOURLY REGIONAL WEATHER ROUNDUP
NATIONAL WEATHER SERVICE DETROIT/PONTIAC MI
400 PM EDT MON JUL 25 2016

NOTE: "FAIR" INDICATES FEW OR NO CLOUDS BELOW 12,000 FEET WITH NO
SIGNIFICANT WEATHER AND/OR OBSTRUCTION TO VISIBILITY.

MIZ047>049-052>055-059>063-066>070-074>076-081>083-252100-
SOUTHEAST LOWER MICHIGAN

CITY           SKY/WX    TMP DP  RH WIND       PRES   REMARKS
ADRIAN         CLOUDY    87  66  49 NW12      29.96S
ALMA           SUNNY     86  61  42 NW13      29.94S
ANN ARBOR      MOSUNNY   90  64  42 W12       29.93F HX  91
BAD AXE        MOSUNNY   86  58  38 W16G23    29.90F
CARO           MOSUNNY   88  62  42 W10G20    29.91S
DETROIT CITY   MOSUNNY   91  63  39 W13G20    29.90F HX  92
DETROIT        MOSUNNY   92  62  36 W13G20    29.92F HX  92
FLINT          PTSUNNY   92  62  36 W16G23    29.93S HX  92
GROSSE ILE     PTSUNNY   91  64  41 W7        29.90F HX  92
HILLSDALE        N/A    N/A N/A N/A W7        29.98
HOWELL         MOSUNNY   87  60  40 NW13      29.95S

CITY           SKY/WX    TMP DP  RH WIND       PRES   REMARKS
JACKSON        MOSUNNY   86  64  47 N7        29.96F
LAMBERTVILLE   CLOUDY    87  72  60 SW8       29.94F HX  94
LANSING        MOSUNNY   87  63  44 W7        29.95F
LAPEER         FAIR      87  59  38 NW9G16    29.92F
MASON          SUNNY     86  62  45 NW8G18    29.96S
MONROE         CLOUDY    86  73  66 W12G22    29.92S HX  93
MT. CLEMENS    MOSUNNY   89  65  46 W13G18    29.89F HX  90
PONTIAC        MOSUNNY   85  63  47 NW13      29.93S
PORT HURON     PTSUNNY   84  68  58 NW7       29.90F
TRI CITIES     MOSUNNY   87  63  44 W17       29.92F
MIDLAND        NOT AVBL
TROY           SUNNY     90  56  31 W13G18    29.93F
SAGINAW HB     MOSUNNY   88  59  37 W15G23    29.91S
$$
MIZ043>046-050>051-056>058-064>065-071>073-077>080-252100-
SOUTHWEST LOWER MICHIGAN

CITY           SKY/WX    TMP DP  RH WIND       PRES   REMARKS
BATTLE CREEK   MOSUNNY   83  66  56 NW13G18   29.98F
BENTON HARBOR  SUNNY     79  65  62 VRB6      30.01S
BIG RAPIDS     SUNNY     83  56  40 NW10G16   29.96S
COLDWATER      CLOUDY    85  64  47 W9        29.98F
FREMONT        FAIR      84  55  37 NW15      29.97S
HOLLAND        SUNNY     81  65  58 W10       30.00S
GRAND RAPIDS   MOSUNNY   86  61  42 NW9       29.96F
IONIA          FAIR      83  59  44 NW7       29.94F
KALAMAZOO      MOSUNNY   85  64  49 W13G18    29.97F
LUDINGTON      SUNNY     80  65  62 W8        29.97S
MARSHALL       MOSUNNY   88  64  44 W10G16    29.96F
MOUNT PLEASANT MOSUNNY   86  59  39 W8G16     29.93S
MUSKEGON       MOSUNNY   85  60  42 NW15G21   29.97F
SOUTH HAVEN    SUNNY     79  66  65 NW7       30.01F
$$
MIZ016>042-252100-
NORTHERN LOWER MICHIGAN

CITY           SKY/WX    TMP DP  RH WIND       PRES   REMARKS
ALPENA         SUNNY     85  57  38 NW13G23   29.88R
BEAVER ISLAND  SUNNY     79  62  56 W8        29.94S
BELLAIRE       SUNNY     78  60  53 NW7       29.95S
CADILLAC       SUNNY     82  59  45 W13G18    29.96S
CHARLEVOIX     PTSUNNY   79  62  56 W12G17    29.98R
FRANKFORT      SUNNY     78  65  63 W5        29.95F
GAYLORD        MOSUNNY   78  59  51 W10G20    29.96R
GRAYLING       SUNNY     82  60  46 W15G24    29.96R
HARBOR SPRINGS MOSUNNY   75  66  75 W12       29.94R
HOUGHTON LAKE  SUNNY     84  56  38 W13G23    29.94S
MANISTEE       SUNNY     81  63  54 W12       29.96S
OSCODA         PTSUNNY   88  56  33 W21G30    29.86S
PELLSTON       MOSUNNY   79  59  50 W15G23    29.93R
ROGERS CITY    PTSUNNY   78  60  53 NW10G17   29.90S
TRAVERSE CITY  MOSUNNY   84  58  40 NW14G22   29.93S
$$
MIZ007>008-015-252100-
EASTERN UPPER MICHIGAN

CITY           SKY/WX    TMP DP  RH WIND       PRES   REMARKS
KINROSS        CLOUDY    73  61  65 NW20G26   29.90S
MACKINAC ISLAN PTSUNNY   75  60  58 W16G28    29.91R
S. S. MARIE    CLOUDY    70  60  70 W14G20    29.91R
MUNISING         N/A     73  59  61 N14G23    29.96
$$
MIZ004>006-011>014-085-252100-
CENTRAL UPPER MICHIGAN

CITY           SKY/WX    TMP DP  RH WIND       PRES   REMARKS
MANISTIQUE     SUNNY     79  59  49 NW12G22   29.94R
ESCANABA       SUNNY     82  55  39 NW14G23   29.92S
MENOMINEE      MOSUNNY  N/A N/A N/A NW8       29.94F
SAWYER-GWINN   MOSUNNY   79  54  41 NW12G20   29.97R
$$
MIZ001>003-009>011-084-252100-
WESTERN UPPER MICHIGAN

CITY           SKY/WX    TMP DP  RH WIND       PRES   REMARKS
IRON MOUNTAIN  SUNNY     82  55  39 NW13      29.96S
HOUGHTON       SUNNY     76  58  53 W20       29.97R
COPPER HARBOR    N/A     76  59  55 NW14G24   29.92R
IRONWOOD       SUNNY     77  61  57 NW13      29.99S
$$

ABBREVIATIONS USED IN REMARKS
   TC - TEMPERATURE IN CELSIUS
  WCI - WIND CHILL INDEX
   HX - HEAT INDEX
  VSB - VISIBILITY




USA.gov is the U.S. government's official web portal to all federal, state and local government web resources and services.